Regional Weather Roundup
Issued by NWS Sioux Falls, SD

Home | Current Version | Previous Version | Text Only | Print | Product List | Glossary Off
Versions: 1 2 3 4 5 6 7 8 9 10 11 12 13 14 15 16 17 18 19 20 21 22 23 24 25 26 27 28 29 30 31 32 33 34 35 36 37 38 39 40 41 42 43 44 45 46 47 48 49 50

000
ASUS43 KFSD 212302
RWRFSD

WEATHER ROUNDUP FOR SE SOUTH DAKOTA/SW MINNESOTA/NW IOWA
NATIONAL WEATHER SERVICE SIOUX FALLS SD
600 PM CDT MON JUL 21 2014

NOTE: "FAIR" INDICATES FEW OR NO CLOUDS BELOW 12,000 FEET WITH NO
SIGNIFICANT WEATHER AND OR OBSTRUCTIONS TO VISIBILITY.


SDZ038>040-050-052>070-220000-
SOUTHEAST SOUTH DAKOTA

CITY           SKY/WX    TMP DP  RH WIND       PRES   REMARKS
CHAMBERLAIN    SUNNY    103  54  19 W17G28    29.72S HX 101
HURON          SUNNY     92  77  61 SE14G22   29.69F HX 105
MADISON        FAIR      84  81  89 S17G24    29.79S HX  98
MITCHELL       SUNNY     94  77  57 S17       29.72F HX 108
SIOUX FALLS    PTSUNNY   87  77  72 S17       29.79F HX  99
WINNER         FAIR     106  51  16 W16G25    29.76F HX 103
YANKTON        SUNNY     91  79  66 SE10      29.77F HX 107
$$

MNZ071-072-080-081-089-090-097-098-220000-
SOUTHWEST MINNESOTA

CITY           SKY/WX    TMP DP  RH WIND       PRES   REMARKS
FAIRMONT       CLOUDY    84  72  65 S12G17    29.87S
LUVERNE        MOSUNNY   86  75  70 S10       29.83R HX  95
MARSHALL       CLOUDY    84  73  70 S14       29.79F
MONTEVIDEO     CLOUDY    86  75  70 S13G18    29.79F HX  95
PIPESTONE      MOSUNNY   84  75  74 S16       29.83S
REDWOOD FALLS  CLOUDY    86  74  67 S12       29.83F
TRACY          CLOUDY    85  75  73 S16       29.82F
WINDOM         CLOUDY    84  73  70 S7        29.86F
WORTHINGTON    CLOUDY    82  75  78 S10G17    29.86F
$$

IAZ001>003-012>014-020>022-031-032-NEZ013-014-SDZ071-220000-
NORTHWEST IOWA

CITY           SKY/WX    TMP DP  RH WIND       PRES   REMARKS
CHEROKEE       PTSUNNY   87  78  73 S12G17    29.84S HX 100
DENISON        MOSUNNY   90  77  66 S12       29.84S HX 102
ESTHERVILLE    PTSUNNY   84  75  74 S13       29.87S
LE MARS        PTSUNNY   88  79  74 SE10      29.80F HX 102
ORANGE CITY    PTSUNNY   88  79  74 N3        29.83F HX 102
SHELDON        CLOUDY    84  77  79 S9G16     29.83R
SIOUX CITY     PTSUNNY   92  78  63 S15       29.78F HX 107
SPENCER        PTSUNNY   85  76  74 S9        29.86S
STORM LAKE     PTSUNNY   86  81  84 S12       29.88S HX 102
$$

ABBREVIATIONS USED IN REMARKS
   TC - TEMPERATURE IN CELSIUS
  WCI - WIND CHILL INDEX
   HX - HEAT INDEX
  VSB - VISIBILITY



USA.gov is the U.S. government's official web portal to all federal, state and local government web resources and services.